Location: Cactus School
(34.5700°N, 118.0931°W)
Time: 08:13:24
(UTC-07:00)

Vanguard 2 - Pass Details

Date: 02 May 2024
Orbit: 553 x 2914 km, 32.9° (Epoch: 22 May)

Event Time Altitude Azimuth Distance (km) Brightness Sun altitude
Exits shadow 00:54:22 81° 138° (SE) 2,171 9.4 -39.9°
Drops below altitude 10° 01:10:04 10° 91° (E) 5,566 11.9 -39.6°
Sets 01:14:46 0° 91° (E) 6,709 12.4 -39.5°
